星链-31942 (STARLINK-31942 )

导读

STARLINK-31942是美国SpaceX星链星座的成员,于2024年5月28日发射升空,星链项目旨在构建全球卫星互联网星座,为全球用户提供高速宽带网络服务。该卫星延续了星链星座的设计标准,承担卫星通信组网任务,助力完善星链低轨卫星通信网络的覆盖范围与服务能力。

基本信息
目录编号:
59899
目录名称:
STARLINK-31942
国际标识:
2024-100Q
轨道中心:
EARTH
卫星名称:
星链-31942
卫星全名:
星链-31942 (STARLINK-31942 )
卫星状态:
在轨 (已飞行836 天)
发射日期:
2024-05-28 UTC
国别 :
美国 (US)
星等 :
--
该卫星已列入 空间交会检测服务 Space Conjunction Data Service (SCDS) ,当前飞行风险评估等级: 无高风险
轨道信息
数据来源 国际轨道数据 AOE轨道数据
星历时间 2026-09-11T11:47:41+0800
14小时前
查看轨道信息
2026-09-09T23:00:00+0800
2天前
查看轨道信息
半长轴 6861.109km 6861.188km
偏心率 0.0001964 0.0001769
轨道倾角 43.002° 42.999°
近地点辐角 258.306° 229.601°
升交点赤经 157.813° 166.477°
平近点角 101.757° 329.498°
近地点 481.624km 481.837km
远地点 484.32km 484.265km
周期 94.265分钟 94.267分钟
每日圈数 15.27606 15.275794
详细信息
固有亮度:
5
最大亮度:
1.5
卫星平台:
Starlink v2.0 mini
覆盖范围:
全球
运营商:
太空探索技术公司
运营商所在国:
美国
制造商(研发单位):
太空探索技术公司
制造商所在国:
美国
使用方式:
暂无
卫星简介
星链(Starlink)计划是由太空探索技术公司(SpaceX)提出的一个巨型低轨卫星互联网星座项目,计划在2019年至2024年间在太空搭建由约1.2万颗卫星组成的“星链”网络,其中1584颗将部署在地球上空550千米处的近地轨道,并从2020年开始工作。该卫星仍在工作。
2D轨道图
3D轨道图
轨道高度分析图
轨道倾角分析图
轨道综合分析图
查看轨道综合分析图
交会数据列表
事件ID 空间交会对象 最接近时刻(TCA) 交会距离 交会风险概率(CRP) 交会风险指数(CRI) 操作
CDM_260913-034605-989906-685721
2026-09-13T
03:46:04+0000
0.720 km
远距离
5.969691E-5 中风险 0.71
CDM_260910-060505-989906-379521
2026-09-10T
06:05:39+0000
0.782 km
远距离
3.348125E-5 中风险 0.65
CDM_260914-024005-989906-379521
2026-09-14T
02:40:51+0000
1.108 km
极远距离
1.025398E-5 中风险 0.55
CDM_260912-173405-989906-685722
2026-09-12T
17:34:05+0000
1.280 km
极远距离
8.628646E-6 低风险 0.54
CDM_260914-005705-989906-656521
2026-09-14T
00:57:43+0000
1.321 km
极远距离
7.706067E-6 低风险 0.53
CDM_260914-023105-989906-656521
2026-09-14T
02:31:52+0000
1.883 km
极远距离
2.569206E-6 低风险 0.43
CDM_260914-041505-989906-379521
2026-09-14T
04:15:00+0000
1.905 km
极远距离
1.871744E-6 低风险 0.4
CDM_260912-190805-989906-685722
2026-09-12T
19:08:14+0000
2.340 km
极远距离
1.557975E-6 低风险 0.39
CDM_260910-073905-989906-379522
2026-09-10T
07:39:48+0000
2.707 km
极远距离
9.314097E-7 极低风险 0.34
CDM_260911-032805-989906-710921
2026-09-11T
03:28:23+0000
2.946 km
极远距离
6.533234E-7 极低风险 0.31
与全量物体交会距离演化趋势
与全量物体交会风险概率演化趋势